Location: Unspecified
(52.4292°N, 19.3359°E)
Time: 15:36:12
(UTC+01:00)

A-11 Canister half - Pass Details

Date: 22 October 2025
Orbit: 1526 x 1682 km, 47.3° (Epoch: 13 November)

Event Time Altitude Azimuth Distance (km) Brightness Sun altitude
Exits shadow 02:54:06 48° 123° (ESE) 1,914 9.4 -39.2°
Drops below altitude 10° 03:01:05 10° 87° (E) 3,698 11.5 -38.4°
Sets 03:04:12 0° 84° (E) 4,687 12.2 -38.0°
